Location: Saint-Palais-sur-Mer
(45.6429°N, 1.0859°W)
Time: 23:59:31
(UTC+01:00)

Vanguard 1 - Pass Details

Date: 10 February 2026
Orbit: 653 x 3818 km, 34.2° (Epoch: 12 March)

Event Time Altitude Azimuth Distance (km) Brightness Sun altitude
Rises 20:43:00 0° 260° (W) 6,496 15.5 -24.8°
Reaches altitude 10° 20:46:48 10° 256° (WSW) 5,812 14.9 -25.4°
Maximum altitude 21:06:08 60° 183° (S) 4,084 13.0 -28.8°
Enters shadow 21:17:32 37° 125° (SE) 4,966 13.1 -30.7°
